Time,TemperatureF,DewpointF,PressureIn,WindDirection,WindDirectionDegrees,WindSpeedMPH,WindSpeedGustMPH,Humidity,HourlyPrecipIn,Conditions,Clouds,dailyrainin,SoftwareType,DateUTC
2013-01-18 00:04:00,29.1,25.4,30.52,NE,50,2.0,3.0,86,0.00,,,0.00,Wunderground v.1.15,2013-01-18 06:04:00,
2013-01-18 00:09:00,29.3,25.4,30.51,NE,43,2.0,3.0,85,0.00,,,0.00,Wunderground v.1.15,2013-01-18 06:09:00,
2013-01-18 00:15:00,29.5,25.5,30.51,NE,49,2.0,2.0,85,0.00,,,0.00,Wunderground v.1.15,2013-01-18 06:15:00,
2013-01-18 00:21:00,29.7,25.5,30.51,NE,54,1.0,1.0,84,0.00,,,0.00,Wunderground v.1.15,2013-01-18 06:21:00,
2013-01-18 00:27:00,29.7,25.5,30.51,NNW,338,1.0,1.0,84,0.00,,,0.00,Wunderground v.1.15,2013-01-18 06:27:00,
2013-01-18 00:32:00,29.6,25.4,30.52,NE,39,2.0,2.0,84,0.00,,,0.00,Wunderground v.1.15,2013-01-18 06:32:00,
2013-01-18 00:37:00,29.7,25.2,30.52,NE,53,1.0,3.0,83,0.00,,,0.00,Wunderground v.1.15,2013-01-18 06:37:00,
2013-01-18 00:43:00,29.7,25.2,30.52,NE,52,1.0,3.0,83,0.00,,,0.00,Wunderground v.1.15,2013-01-18 06:43:00,
2013-01-18 00:49:00,29.6,25.1,30.52,NE,39,2.0,3.0,83,0.00,,,0.00,Wunderground v.1.15,2013-01-18 06:49:00,
2013-01-18 00:54:00,29.6,25.1,30.52,NE,37,1.0,2.0,83,0.00,,,0.00,Wunderground v.1.15,2013-01-18 06:54:00,
2013-01-18 00:59:00,29.7,25.2,30.52,NE,47,0.0,2.0,83,0.00,,,0.00,Wunderground v.1.15,2013-01-18 06:59:00,
2013-01-18 01:04:00,29.5,24.7,30.52,NE,46,2.0,2.0,82,0.00,,,0.00,Wunderground v.1.15,2013-01-18 07:04:00,
2013-01-18 01:10:00,29.3,24.8,30.52,ENE,59,1.0,1.0,83,0.00,,,0.00,Wunderground v.1.15,2013-01-18 07:10:00,
2013-01-18 01:15:00,29.3,24.5,30.52,ENE,63,2.0,2.0,82,0.00,,,0.00,Wunderground v.1.15,2013-01-18 07:15:00,
2013-01-18 01:57:00,26.8,23.2,30.53,NE,50,0.0,0.0,86,0.00,,,0.00,Wunderground v.1.15,2013-01-18 07:57:00,
2013-01-18 02:02:00,26.4,23.1,30.53,NE,50,0.0,0.0,87,0.00,,,0.00,Wunderground v.1.15,2013-01-18 08:02:00,
2013-01-18 02:07:00,26.0,22.9,30.53,NE,50,0.0,0.0,88,0.00,,,0.00,Wunderground v.1.15,2013-01-18 08:07:00,
2013-01-18 02:12:00,25.9,23.1,30.53,NE,49,0.0,0.0,89,0.00,,,0.00,Wunderground v.1.15,2013-01-18 08:12:00,
2013-01-18 02:17:00,25.8,23.3,30.52,NE,50,0.0,0.0,90,0.00,,,0.00,Wunderground v.1.15,2013-01-18 08:17:00,
2013-01-18 02:22:00,25.6,22.8,30.53,NE,49,0.0,0.0,89,0.00,,,0.00,Wunderground v.1.15,2013-01-18 08:22:00,
2013-01-18 02:27:00,25.4,22.9,30.52,NE,50,0.0,0.0,90,0.00,,,0.00,Wunderground v.1.15,2013-01-18 08:27:00,
2013-01-18 02:32:00,25.3,23.0,30.53,NE,49,0.0,0.0,91,0.00,,,0.00,Wunderground v.1.15,2013-01-18 08:32:00,
2013-01-18 02:37:00,25.3,23.0,30.53,NE,50,0.0,0.0,91,0.00,,,0.00,Wunderground v.1.15,2013-01-18 08:37:00,
2013-01-18 02:42:00,24.8,22.3,30.52,NE,50,0.0,0.0,90,0.00,,,0.00,Wunderground v.1.15,2013-01-18 08:42:00,
2013-01-18 02:47:00,24.5,22.2,30.52,NE,50,0.0,0.0,91,0.00,,,0.00,Wunderground v.1.15,2013-01-18 08:47:00,
2013-01-18 02:52:00,24.9,23.2,30.52,NE,50,0.0,0.0,93,0.00,,,0.00,Wunderground v.1.15,2013-01-18 08:52:00,
2013-01-18 02:57:00,25.5,23.5,30.52,NE,50,0.0,0.0,92,0.00,,,0.00,Wunderground v.1.15,2013-01-18 08:57:00,
2013-01-18 04:15:00,23.6,21.6,30.52,ESE,103,0.0,0.0,92,0.00,,,0.00,Wunderground v.1.15,2013-01-18 10:15:00,
2013-01-18 04:20:00,23.6,21.6,30.52,ESE,103,0.0,0.0,92,0.00,,,0.00,Wunderground v.1.15,2013-01-18 10:20:00,
2013-01-18 04:25:00,23.4,21.4,30.52,ESE,103,0.0,0.0,92,0.00,,,0.00,Wunderground v.1.15,2013-01-18 10:25:00,
2013-01-18 04:30:00,23.2,21.2,30.52,SSW,205,0.0,0.0,92,0.00,,,0.00,Wunderground v.1.15,2013-01-18 10:30:00,
2013-01-18 04:35:00,22.9,20.9,30.52,SSW,204,0.0,1.0,92,0.00,,,0.00,Wunderground v.1.15,2013-01-18 10:35:00,
2013-01-18 04:40:00,22.8,21.1,30.52,SSW,205,0.0,0.0,93,0.00,,,0.00,Wunderground v.1.15,2013-01-18 10:40:00,
2013-01-18 04:45:00,22.5,20.8,30.52,SSW,204,0.0,0.0,93,0.00,,,0.00,Wunderground v.1.15,2013-01-18 10:45:00,
2013-01-18 04:50:00,22.2,20.2,30.52,SSW,204,0.0,0.0,92,0.00,,,0.00,Wunderground v.1.15,2013-01-18 10:50:00,
2013-01-18 04:55:00,22.2,20.7,30.53,SSW,204,0.0,0.0,94,0.00,,,0.00,Wunderground v.1.15,2013-01-18 10:55:00,
2013-01-18 05:00:00,22.4,20.9,30.53,SSW,204,0.0,0.0,94,0.00,,,0.00,Wunderground v.1.15,2013-01-18 11:00:00,
2013-01-18 05:05:00,22.3,20.6,30.54,WSW,243,0.0,1.0,93,0.00,,,0.00,Wunderground v.1.15,2013-01-18 11:05:00,
2013-01-18 05:10:00,22.3,20.8,30.54,West,259,0.0,0.0,94,0.00,,,0.00,Wunderground v.1.15,2013-01-18 11:10:00,
2013-01-18 05:15:00,22.2,20.7,30.54,West,259,0.0,0.0,94,0.00,,,0.00,Wunderground v.1.15,2013-01-18 11:15:00,
2013-01-18 05:21:00,22.5,21.3,30.54,WSW,258,0.0,0.0,95,0.00,,,0.00,Wunderground v.1.15,2013-01-18 11:21:00,
2013-01-18 05:26:00,22.6,21.4,30.55,West,259,0.0,0.0,95,0.00,,,0.00,Wunderground v.1.15,2013-01-18 11:26:00,
2013-01-18 05:31:00,22.9,21.7,30.55,West,259,0.0,0.0,95,0.00,,,0.00,Wunderground v.1.15,2013-01-18 11:31:00,
2013-01-18 05:36:00,23.3,22.1,30.54,West,259,0.0,0.0,95,0.00,,,0.00,Wunderground v.1.15,2013-01-18 11:36:00,
2013-01-18 05:41:00,23.1,21.9,30.55,WSW,258,0.0,0.0,95,0.00,,,0.00,Wunderground v.1.15,2013-01-18 11:41:00,
2013-01-18 05:46:00,23.1,21.9,30.55,West,259,0.0,0.0,95,0.00,,,0.00,Wunderground v.1.15,2013-01-18 11:46:00,
2013-01-18 05:51:00,23.3,22.3,30.55,WSW,258,0.0,0.0,96,0.00,,,0.00,Wunderground v.1.15,2013-01-18 11:51:00,
2013-01-18 05:56:00,23.2,22.0,30.54,WSW,258,0.0,0.0,95,0.00,,,0.00,Wunderground v.1.15,2013-01-18 11:56:00,
2013-01-18 06:01:00,22.9,21.4,30.55,West,259,0.0,0.0,94,0.00,,,0.00,Wunderground v.1.15,2013-01-18 12:01:00,
2013-01-18 06:06:00,22.6,21.4,30.55,West,259,0.0,0.0,95,0.00,,,0.00,Wunderground v.1.15,2013-01-18 12:06:00,
2013-01-18 06:11:00,22.5,21.0,30.55,WSW,258,0.0,0.0,94,0.00,,,0.00,Wunderground v.1.15,2013-01-18 12:11:00,
2013-01-18 06:16:00,22.2,20.7,30.55,West,259,0.0,0.0,94,0.00,,,0.00,Wunderground v.1.15,2013-01-18 12:16:00,
2013-01-18 06:21:00,22.1,20.9,30.55,West,259,0.0,0.0,95,0.00,,,0.00,Wunderground v.1.15,2013-01-18 12:21:00,
2013-01-18 06:26:00,22.0,20.8,30.55,West,259,0.0,0.0,95,0.00,,,0.00,Wunderground v.1.15,2013-01-18 12:26:00,
2013-01-18 06:31:00,21.6,20.1,30.55,West,259,0.0,0.0,94,0.00,,,0.00,Wunderground v.1.15,2013-01-18 12:31:00,
2013-01-18 06:36:00,21.7,20.5,30.55,West,259,0.0,0.0,95,0.00,,,0.00,Wunderground v.1.15,2013-01-18 12:36:00,
2013-01-18 06:41:00,21.6,20.4,30.55,West,259,0.0,0.0,95,0.00,,,0.00,Wunderground v.1.15,2013-01-18 12:41:00,
2013-01-18 06:46:00,21.7,20.5,30.55,WSW,258,0.0,0.0,95,0.00,,,0.00,Wunderground v.1.15,2013-01-18 12:46:00,
2013-01-18 06:51:00,21.6,20.4,30.55,West,259,0.0,0.0,95,0.00,,,0.00,Wunderground v.1.15,2013-01-18 12:51:00,
2013-01-18 06:56:00,21.5,20.3,30.55,WSW,258,0.0,1.0,95,0.00,,,0.00,Wunderground v.1.15,2013-01-18 12:56:00,
2013-01-18 07:01:00,21.3,20.1,30.56,WSW,258,0.0,0.0,95,0.00,,,0.00,Wunderground v.1.15,2013-01-18 13:01:00,
2013-01-18 07:06:00,21.1,19.6,30.56,West,259,0.0,0.0,94,0.00,,,0.00,Wunderground v.1.15,2013-01-18 13:06:00,
2013-01-18 07:11:00,20.9,19.7,30.56,WSW,258,0.0,0.0,95,0.00,,,0.00,Wunderground v.1.15,2013-01-18 13:11:00,
2013-01-18 07:16:00,20.9,19.7,30.56,WSW,258,0.0,0.0,95,0.00,,,0.00,Wunderground v.1.15,2013-01-18 13:16:00,
2013-01-18 07:21:00,20.9,19.7,30.56,West,259,0.0,0.0,95,0.00,,,0.00,Wunderground v.1.15,2013-01-18 13:21:00,
2013-01-18 07:26:00,21.0,19.8,30.56,West,259,0.0,0.0,95,0.00,,,0.00,Wunderground v.1.15,2013-01-18 13:26:00,
2013-01-18 07:31:00,21.2,20.0,30.56,WSW,258,0.0,0.0,95,0.00,,,0.00,Wunderground v.1.15,2013-01-18 13:31:00,
2013-01-18 07:36:00,21.3,20.1,30.56,West,259,0.0,0.0,95,0.00,,,0.00,Wunderground v.1.15,2013-01-18 13:36:00,
2013-01-18 07:41:00,21.8,20.8,30.56,WSW,258,0.0,0.0,96,0.00,,,0.00,Wunderground v.1.15,2013-01-18 13:41:00,
2013-01-18 07:46:00,22.9,21.9,30.56,WSW,257,0.0,1.0,96,0.00,,,0.00,Wunderground v.1.15,2013-01-18 13:46:00,
2013-01-18 07:51:00,23.7,22.7,30.56,ESE,114,0.0,1.0,96,0.00,,,0.00,Wunderground v.1.15,2013-01-18 13:51:00,
2013-01-18 07:56:00,24.6,23.4,30.56,ESE,114,0.0,1.0,95,0.00,,,0.00,Wunderground v.1.15,2013-01-18 13:56:00,
2013-01-18 08:01:00,25.4,23.9,30.56,ESE,114,0.0,0.0,94,0.00,,,0.00,Wunderground v.1.15,2013-01-18 14:01:00,
2013-01-18 08:06:00,25.7,24.0,30.57,ESE,114,0.0,0.0,93,0.00,,,0.00,Wunderground v.1.15,2013-01-18 14:06:00,
2013-01-18 08:11:00,25.8,24.1,30.57,SE,128,0.0,1.0,93,0.00,,,0.00,Wunderground v.1.15,2013-01-18 14:11:00,
2013-01-18 08:16:00,26.1,24.1,30.57,SW,236,0.0,1.0,92,0.00,,,0.00,Wunderground v.1.15,2013-01-18 14:16:00,
2013-01-18 08:21:00,26.4,24.4,30.57,SW,236,0.0,0.0,92,0.00,,,0.00,Wunderground v.1.15,2013-01-18 14:21:00,
2013-01-18 08:26:00,26.8,24.8,30.57,WSW,240,1.0,1.0,92,0.00,,,0.00,Wunderground v.1.15,2013-01-18 14:26:00,
2013-01-18 08:31:00,27.2,25.2,30.58,WSW,241,0.0,1.0,92,0.00,,,0.00,Wunderground v.1.15,2013-01-18 14:31:00,
2013-01-18 08:36:00,27.6,25.3,30.58,SW,222,0.0,1.0,91,0.00,,,0.00,Wunderground v.1.15,2013-01-18 14:36:00,
2013-01-18 08:41:00,28.1,25.5,30.58,WSW,242,0.0,0.0,90,0.00,,,0.00,Wunderground v.1.15,2013-01-18 14:41:00,
2013-01-18 08:46:00,28.7,26.1,30.58,WSW,240,0.0,0.0,90,0.00,,,0.00,Wunderground v.1.15,2013-01-18 14:46:00,
2013-01-18 08:51:00,29.3,26.2,30.58,SW,220,0.0,1.0,88,0.00,,,0.00,Wunderground v.1.15,2013-01-18 14:51:00,
2013-01-18 08:56:00,29.7,26.6,30.58,SSW,203,1.0,2.0,88,0.00,,,0.00,Wunderground v.1.15,2013-01-18 14:56:00,
2013-01-18 09:01:00,30.2,26.8,30.58,South,173,1.0,1.0,87,0.00,,,0.00,Wunderground v.1.15,2013-01-18 15:01:00,
2013-01-18 09:06:00,30.6,26.3,30.59,SSW,203,1.0,2.0,84,0.00,,,0.00,Wunderground v.1.15,2013-01-18 15:06:00,
2013-01-18 09:11:00,30.8,26.5,30.59,SSW,203,1.0,4.0,84,0.00,,,0.00,Wunderground v.1.15,2013-01-18 15:11:00,
2013-01-18 09:16:00,31.0,26.4,30.59,SW,236,2.0,4.0,83,0.00,,,0.00,Wunderground v.1.15,2013-01-18 15:16:00,
2013-01-18 09:21:00,31.2,26.6,30.59,SW,221,3.0,4.0,83,0.00,,,0.00,Wunderground v.1.15,2013-01-18 15:21:00,
2013-01-18 09:26:00,31.5,26.6,30.59,SW,217,2.0,5.0,82,0.00,,,0.00,Wunderground v.1.15,2013-01-18 15:26:00,
2013-01-18 09:31:00,31.9,27.3,30.59,SW,233,2.0,3.0,83,0.00,,,0.00,Wunderground v.1.15,2013-01-18 15:31:00,
2013-01-18 09:36:00,32.2,27.0,30.59,SW,221,5.0,6.0,81,0.00,,,0.00,Wunderground v.1.15,2013-01-18 15:36:00,
2013-01-18 09:41:00,32.5,27.3,30.59,SW,219,1.0,4.0,81,0.00,,,0.00,Wunderground v.1.15,2013-01-18 15:41:00,
2013-01-18 09:46:00,32.9,27.7,30.59,WSW,245,3.0,4.0,81,0.00,,,0.00,Wunderground v.1.15,2013-01-18 15:46:00,
2013-01-18 09:51:00,33.2,27.1,30.59,SSE,148,2.0,5.0,78,0.00,,,0.00,Wunderground v.1.15,2013-01-18 15:51:00,
2013-01-18 09:56:00,33.6,28.1,30.58,South,172,1.0,5.0,80,0.00,,,0.00,Wunderground v.1.15,2013-01-18 15:56:00,
2013-01-18 10:01:00,34.1,27.3,30.58,WSW,248,5.0,5.0,76,0.00,,,0.00,Wunderground v.1.15,2013-01-18 16:01:00,
2013-01-18 10:06:00,34.3,26.9,30.58,SSE,165,2.0,5.0,74,0.00,,,0.00,Wunderground v.1.15,2013-01-18 16:06:00,
2013-01-18 10:11:00,34.7,26.9,30.58,South,181,2.0,7.0,73,0.00,,,0.00,Wunderground v.1.15,2013-01-18 16:11:00,
2013-01-18 10:17:00,35.0,26.2,30.57,SW,226,4.0,7.0,70,0.00,,,0.00,Wunderground v.1.15,2013-01-18 16:17:00,
2013-01-18 10:22:00,35.3,26.8,30.57,West,278,1.0,4.0,71,0.00,,,0.00,Wunderground v.1.15,2013-01-18 16:22:00,
2013-01-18 10:27:00,35.5,26.7,30.57,WSW,242,3.0,7.0,70,0.00,,,0.00,Wunderground v.1.15,2013-01-18 16:27:00,
2013-01-18 10:32:00,35.7,26.2,30.57,SE,143,5.0,8.0,68,0.00,,,0.00,Wunderground v.1.15,2013-01-18 16:32:00,
2013-01-18 10:37:00,36.1,26.2,30.57,WSW,238,4.0,8.0,67,0.00,,,0.00,Wunderground v.1.15,2013-01-18 16:37:00,
2013-01-18 10:42:00,36.4,26.5,30.57,SW,235,4.0,6.0,67,0.00,,,0.00,Wunderground v.1.15,2013-01-18 16:42:00,
2013-01-18 10:47:00,36.5,26.2,30.57,SW,221,1.0,8.0,66,0.00,,,0.00,Wunderground v.1.15,2013-01-18 16:47:00,
2013-01-18 10:52:00,36.9,27.0,30.57,SW,232,2.0,3.0,67,0.00,,,0.00,Wunderground v.1.15,2013-01-18 16:52:00,
2013-01-18 10:57:00,37.0,26.7,30.57,WNW,293,2.0,5.0,66,0.00,,,0.00,Wunderground v.1.15,2013-01-18 16:57:00,
2013-01-18 11:02:00,37.1,26.4,30.56,SSW,205,3.0,7.0,65,0.00,,,0.00,Wunderground v.1.15,2013-01-18 17:02:00,
2013-01-18 11:07:00,37.5,27.2,30.56,WSW,239,2.0,8.0,66,0.00,,,0.00,Wunderground v.1.15,2013-01-18 17:07:00,
2013-01-18 11:12:00,37.9,27.5,30.55,SW,231,1.0,5.0,66,0.00,,,0.00,Wunderground v.1.15,2013-01-18 17:12:00,
2013-01-18 11:17:00,38.1,26.6,30.55,SW,236,3.0,6.0,63,0.00,,,0.00,Wunderground v.1.15,2013-01-18 17:17:00,
2013-01-18 11:22:00,38.1,27.0,30.55,WSW,239,2.0,7.0,64,0.00,,,0.00,Wunderground v.1.15,2013-01-18 17:22:00,
2013-01-18 11:27:00,38.3,27.2,30.54,West,268,1.0,7.0,64,0.00,,,0.00,Wunderground v.1.15,2013-01-18 17:27:00,
2013-01-18 11:32:00,39.0,28.6,30.54,WSW,242,2.0,4.0,66,0.00,,,0.00,Wunderground v.1.15,2013-01-18 17:32:00,
2013-01-18 11:37:00,39.5,28.3,30.53,SSW,208,5.0,9.0,64,0.00,,,0.00,Wunderground v.1.15,2013-01-18 17:37:00,
2013-01-18 11:42:00,39.9,27.9,30.53,SSW,203,3.0,9.0,62,0.00,,,0.00,Wunderground v.1.15,2013-01-18 17:42:00,
2013-01-18 11:47:00,39.7,27.3,30.52,West,271,4.0,9.0,61,0.00,,,0.00,Wunderground v.1.15,2013-01-18 17:47:00,
2013-01-18 11:52:00,39.9,28.3,30.52,SW,233,4.0,7.0,63,0.00,,,0.00,Wunderground v.1.15,2013-01-18 17:52:00,
2013-01-18 11:57:00,40.4,28.0,30.52,WSW,250,3.0,11.0,61,0.00,,,0.00,Wunderground v.1.15,2013-01-18 17:57:00,
2013-01-18 12:02:00,40.5,27.7,30.51,WNW,302,5.0,6.0,60,0.00,,,0.00,Wunderground v.1.15,2013-01-18 18:02:00,
2013-01-18 12:07:00,41.1,28.7,30.51,SSW,201,6.0,6.0,61,0.00,,,0.00,Wunderground v.1.15,2013-01-18 18:07:00,
2013-01-18 12:12:00,41.2,27.9,30.51,SSW,204,6.0,7.0,59,0.00,,,0.00,Wunderground v.1.15,2013-01-18 18:12:00,
2013-01-18 12:17:00,41.5,27.8,30.50,WSW,253,3.0,7.0,58,0.00,,,0.00,Wunderground v.1.15,2013-01-18 18:17:00,
2013-01-18 12:22:00,42.1,28.8,30.50,SSE,149,6.0,9.0,59,0.00,,,0.00,Wunderground v.1.15,2013-01-18 18:22:00,
2013-01-18 12:27:00,42.6,28.4,30.50,SW,236,6.0,9.0,57,0.00,,,0.00,Wunderground v.1.15,2013-01-18 18:27:00,
2013-01-18 12:32:00,42.4,28.7,30.49,NW,309,3.0,9.0,58,0.00,,,0.00,Wunderground v.1.15,2013-01-18 18:32:00,
2013-01-18 12:37:00,42.6,28.4,30.49,WSW,238,3.0,9.0,57,0.00,,,0.00,Wunderground v.1.15,2013-01-18 18:37:00,
2013-01-18 12:42:00,42.7,28.1,30.48,WSW,238,6.0,10.0,56,0.00,,,0.00,Wunderground v.1.15,2013-01-18 18:42:00,
2013-01-18 12:47:00,43.2,29.4,30.48,WSW,239,3.0,10.0,58,0.00,,,0.00,Wunderground v.1.15,2013-01-18 18:47:00,
2013-01-18 12:52:00,43.5,28.4,30.48,SW,222,2.0,8.0,55,0.00,,,0.00,Wunderground v.1.15,2013-01-18 18:52:00,
2013-01-18 12:57:00,43.7,28.6,30.48,West,278,7.0,8.0,55,0.00,,,0.00,Wunderground v.1.15,2013-01-18 18:57:00,
2013-01-18 13:02:00,43.7,28.6,30.47,SW,221,2.0,10.0,55,0.00,,,0.00,Wunderground v.1.15,2013-01-18 19:02:00,
2013-01-18 13:07:00,43.7,29.0,30.47,WSW,249,4.0,10.0,56,0.00,,,0.00,Wunderground v.1.15,2013-01-18 19:07:00,
2013-01-18 13:12:00,44.2,29.0,30.47,SW,225,7.0,8.0,55,0.00,,,0.00,Wunderground v.1.15,2013-01-18 19:12:00,
2013-01-18 13:17:00,44.5,28.9,30.47,SW,234,7.0,9.0,54,0.00,,,0.00,Wunderground v.1.15,2013-01-18 19:17:00,
2013-01-18 13:22:00,44.8,29.2,30.47,WSW,250,5.0,11.0,54,0.00,,,0.00,Wunderground v.1.15,2013-01-18 19:22:00,
2013-01-18 13:27:00,44.9,29.7,30.46,SSW,200,5.0,11.0,55,0.00,,,0.00,Wunderground v.1.15,2013-01-18 19:27:00,
2013-01-18 13:32:00,45.4,30.2,30.46,SW,232,4.0,8.0,55,0.00,,,0.00,Wunderground v.1.15,2013-01-18 19:32:00,
2013-01-18 13:37:00,45.6,29.9,30.45,SW,233,3.0,9.0,54,0.00,,,0.00,Wunderground v.1.15,2013-01-18 19:37:00,
2013-01-18 13:42:00,46.0,29.3,30.45,WSW,250,5.0,10.0,52,0.00,,,0.00,Wunderground v.1.15,2013-01-18 19:42:00,
2013-01-18 13:47:00,46.2,29.1,30.45,West,260,6.0,10.0,51,0.00,,,0.00,Wunderground v.1.15,2013-01-18 19:47:00,
2013-01-18 13:52:00,46.7,30.5,30.45,West,277,5.0,5.0,53,0.00,,,0.00,Wunderground v.1.15,2013-01-18 19:52:00,
2013-01-18 13:57:00,47.1,29.9,30.45,SW,215,2.0,10.0,51,0.00,,,0.00,Wunderground v.1.15,2013-01-18 19:57:00,
2013-01-18 14:02:00,47.3,29.6,30.45,SW,230,8.0,10.0,50,0.00,,,0.00,Wunderground v.1.15,2013-01-18 20:02:00,
2013-01-18 14:07:00,47.0,29.3,30.45,SW,228,2.0,13.0,50,0.00,,,0.00,Wunderground v.1.15,2013-01-18 20:07:00,
2013-01-18 14:13:00,46.9,29.2,30.44,West,262,3.0,12.0,50,0.00,,,0.00,Wunderground v.1.15,2013-01-18 20:13:00,
2013-01-18 14:18:00,47.1,30.8,30.44,WSW,243,4.0,12.0,53,0.00,,,0.00,Wunderground v.1.15,2013-01-18 20:18:00,
2013-01-18 14:23:00,47.3,29.6,30.44,West,270,3.0,10.0,50,0.00,,,0.00,Wunderground v.1.15,2013-01-18 20:23:00,
2013-01-18 14:28:00,47.4,29.7,30.44,SW,235,4.0,11.0,50,0.00,,,0.00,Wunderground v.1.15,2013-01-18 20:28:00,
2013-01-18 14:33:00,47.8,31.0,30.44,SSW,200,3.0,8.0,52,0.00,,,0.00,Wunderground v.1.15,2013-01-18 20:33:00,
2013-01-18 14:38:00,48.1,30.3,30.43,South,180,4.0,10.0,50,0.00,,,0.00,Wunderground v.1.15,2013-01-18 20:38:00,
2013-01-18 14:43:00,48.2,28.9,30.43,SSW,212,5.0,13.0,47,0.00,,,0.00,Wunderground v.1.15,2013-01-18 20:43:00,
2013-01-18 14:48:00,48.2,29.4,30.43,SW,228,8.0,13.0,48,0.00,,,0.00,Wunderground v.1.15,2013-01-18 20:48:00,
2013-01-18 14:53:00,48.5,29.7,30.43,WNW,283,4.0,8.0,48,0.00,,,0.00,Wunderground v.1.15,2013-01-18 20:53:00,
2013-01-18 14:58:00,48.4,29.1,30.42,SSW,203,6.0,10.0,47,0.00,,,0.00,Wunderground v.1.15,2013-01-18 20:58:00,
2013-01-18 15:03:00,48.5,28.6,30.42,SW,217,3.0,11.0,46,0.00,,,0.00,Wunderground v.1.15,2013-01-18 21:03:00,
2013-01-18 15:08:00,48.6,28.7,30.42,West,277,5.0,11.0,46,0.00,,,0.00,Wunderground v.1.15,2013-01-18 21:08:00,
2013-01-18 15:13:00,48.8,28.9,30.42,SW,215,2.0,10.0,46,0.00,,,0.00,Wunderground v.1.15,2013-01-18 21:13:00,
2013-01-18 15:18:00,48.9,29.0,30.42,SW,236,9.0,12.0,46,0.00,,,0.00,Wunderground v.1.15,2013-01-18 21:18:00,
2013-01-18 15:23:00,49.0,28.6,30.41,SW,221,7.0,10.0,45,0.00,,,0.00,Wunderground v.1.15,2013-01-18 21:23:00,
2013-01-18 15:28:00,49.0,28.6,30.41,SSW,204,9.0,12.0,45,0.00,,,0.00,Wunderground v.1.15,2013-01-18 21:28:00,
2013-01-18 15:33:00,49.3,28.8,30.41,WSW,248,7.0,7.0,45,0.00,,,0.00,Wunderground v.1.15,2013-01-18 21:33:00,
2013-01-18 15:38:00,49.1,28.1,30.41,WNW,293,4.0,11.0,44,0.00,,,0.00,Wunderground v.1.15,2013-01-18 21:38:00,
2013-01-18 15:43:00,49.1,28.1,30.41,WSW,254,2.0,11.0,44,0.00,,,0.00,Wunderground v.1.15,2013-01-18 21:43:00,
2013-01-18 15:48:00,49.2,28.2,30.41,NW,307,5.0,11.0,44,0.00,,,0.00,Wunderground v.1.15,2013-01-18 21:48:00,
2013-01-18 15:53:00,49.3,28.8,30.40,SW,235,2.0,10.0,45,0.00,,,0.00,Wunderground v.1.15,2013-01-18 21:53:00,
2013-01-18 15:58:00,49.5,28.5,30.40,West,259,3.0,10.0,44,0.00,,,0.00,Wunderground v.1.15,2013-01-18 21:58:00,
2013-01-18 16:03:00,49.3,28.3,30.40,SSW,207,7.0,8.0,44,0.00,,,0.00,Wunderground v.1.15,2013-01-18 22:03:00,
2013-01-18 16:08:00,49.0,28.0,30.40,WSW,250,5.0,11.0,44,0.00,,,0.00,Wunderground v.1.15,2013-01-18 22:08:00,
2013-01-18 16:13:00,48.6,28.2,30.40,WSW,242,5.0,7.0,45,0.00,,,0.00,Wunderground v.1.15,2013-01-18 22:13:00,
2013-01-18 16:18:00,48.3,27.9,30.40,SW,236,5.0,7.0,45,0.00,,,0.00,Wunderground v.1.15,2013-01-18 22:18:00,
2013-01-18 16:23:00,48.5,28.1,30.40,WSW,239,3.0,5.0,45,0.00,,,0.00,Wunderground v.1.15,2013-01-18 22:23:00,
2013-01-18 16:28:00,48.4,27.5,30.40,SSW,207,3.0,8.0,44,0.00,,,0.00,Wunderground v.1.15,2013-01-18 22:28:00,
2013-01-18 16:33:00,47.8,27.5,30.40,WSW,239,2.0,7.0,45,0.00,,,0.00,Wunderground v.1.15,2013-01-18 22:33:00,
2013-01-18 16:38:00,47.3,27.5,30.39,SW,223,2.0,7.0,46,0.00,,,0.00,Wunderground v.1.15,2013-01-18 22:38:00,
2013-01-18 16:43:00,47.1,27.4,30.39,SSW,200,4.0,6.0,46,0.00,,,0.00,Wunderground v.1.15,2013-01-18 22:43:00,
2013-01-18 16:48:00,46.8,27.6,30.39,SSW,207,2.0,7.0,47,0.00,,,0.00,Wunderground v.1.15,2013-01-18 22:48:00,
2013-01-18 16:53:00,46.3,27.7,30.39,SSW,207,3.0,6.0,48,0.00,,,0.00,Wunderground v.1.15,2013-01-18 22:53:00,
2013-01-18 16:58:00,45.9,27.3,30.39,WSW,238,2.0,6.0,48,0.00,,,0.00,Wunderground v.1.15,2013-01-18 22:58:00,
2013-01-18 17:03:00,45.5,27.4,30.39,South,180,2.0,6.0,49,0.00,,,0.00,Wunderground v.1.15,2013-01-18 23:03:00,
2013-01-18 17:08:00,45.2,27.2,30.39,SSW,194,1.0,6.0,49,0.00,,,0.00,Wunderground v.1.15,2013-01-18 23:08:00,
2013-01-18 17:14:00,44.9,26.9,30.39,SSW,196,0.0,3.0,49,0.00,,,0.00,Wunderground v.1.15,2013-01-18 23:14:00,
2013-01-18 17:19:00,44.4,26.9,30.39,South,180,0.0,3.0,50,0.00,,,0.00,Wunderground v.1.15,2013-01-18 23:19:00,
2013-01-18 17:24:00,44.1,27.1,30.39,SSW,211,0.0,2.0,51,0.00,,,0.00,Wunderground v.1.15,2013-01-18 23:24:00,
2013-01-18 17:29:00,43.6,26.6,30.39,SSW,211,0.0,2.0,51,0.00,,,0.00,Wunderground v.1.15,2013-01-18 23:29:00,
2013-01-18 17:34:00,43.2,26.7,30.39,SW,214,0.0,1.0,52,0.00,,,0.00,Wunderground v.1.15,2013-01-18 23:34:00,
2013-01-18 17:39:00,42.7,26.7,30.39,SW,214,0.0,1.0,53,0.00,,,0.00,Wunderground v.1.15,2013-01-18 23:39:00,
2013-01-18 17:44:00,41.8,26.8,30.39,SW,214,0.0,0.0,55,0.00,,,0.00,Wunderground v.1.15,2013-01-18 23:44:00,
2013-01-18 17:49:00,40.9,26.4,30.38,SW,216,0.0,1.0,56,0.00,,,0.00,Wunderground v.1.15,2013-01-18 23:49:00,
2013-01-18 17:54:00,40.8,26.3,30.38,SSE,166,2.0,2.0,56,0.00,,,0.00,Wunderground v.1.15,2013-01-18 23:54:00,
2013-01-18 17:59:00,41.0,26.5,30.38,SSE,162,1.0,2.0,56,0.00,,,0.00,Wunderground v.1.15,2013-01-18 23:59:00,
2013-01-18 18:04:00,41.3,26.8,30.38,SSE,150,1.0,2.0,56,0.00,,,0.00,Wunderground v.1.15,2013-01-19 00:04:00,
2013-01-18 18:09:00,41.5,27.0,30.38,South,172,2.0,2.0,56,0.00,,,0.00,Wunderground v.1.15,2013-01-19 00:09:00,
2013-01-18 18:14:00,41.5,27.0,30.38,SSE,167,1.0,2.0,56,0.00,,,0.00,Wunderground v.1.15,2013-01-19 00:14:00,
2013-01-18 18:19:00,41.6,27.1,30.38,SSE,165,1.0,3.0,56,0.00,,,0.00,Wunderground v.1.15,2013-01-19 00:19:00,
2013-01-18 18:24:00,41.6,27.1,30.38,SSE,161,1.0,3.0,56,0.00,,,0.00,Wunderground v.1.15,2013-01-19 00:24:00,
2013-01-18 18:29:00,41.5,27.0,30.38,SW,214,2.0,3.0,56,0.00,,,0.00,Wunderground v.1.15,2013-01-19 00:29:00,
2013-01-18 18:34:00,41.4,27.3,30.38,South,176,1.0,2.0,57,0.00,,,0.00,Wunderground v.1.15,2013-01-19 00:34:00,
2013-01-18 18:39:00,41.3,27.2,30.38,South,180,2.0,2.0,57,0.00,,,0.00,Wunderground v.1.15,2013-01-19 00:39:00,
2013-01-18 18:44:00,41.2,27.1,30.38,SSE,160,1.0,2.0,57,0.00,,,0.00,Wunderground v.1.15,2013-01-19 00:44:00,
2013-01-18 18:49:00,41.0,26.9,30.38,SSE,159,0.0,2.0,57,0.00,,,0.00,Wunderground v.1.15,2013-01-19 00:49:00,
2013-01-18 18:54:00,40.7,27.1,30.38,SSW,203,0.0,1.0,58,0.00,,,0.00,Wunderground v.1.15,2013-01-19 00:54:00,
2013-01-18 18:59:00,40.8,26.7,30.38,SSW,210,0.0,3.0,57,0.00,,,0.00,Wunderground v.1.15,2013-01-19 00:59:00,
2013-01-18 19:04:00,40.8,26.7,30.38,SW,221,1.0,2.0,57,0.00,,,0.00,Wunderground v.1.15,2013-01-19 01:04:00,
2013-01-18 19:09:00,40.7,26.6,30.38,SSW,210,1.0,2.0,57,0.00,,,0.00,Wunderground v.1.15,2013-01-19 01:09:00,
2013-01-18 19:14:00,40.6,26.5,30.38,SW,215,0.0,1.0,57,0.00,,,0.00,Wunderground v.1.15,2013-01-19 01:14:00,
2013-01-18 19:19:00,40.4,26.8,30.38,SSW,207,0.0,2.0,58,0.00,,,0.00,Wunderground v.1.15,2013-01-19 01:19:00,
2013-01-18 19:24:00,40.2,26.6,30.38,SE,143,0.0,2.0,58,0.00,,,0.00,Wunderground v.1.15,2013-01-19 01:24:00,
2013-01-18 19:29:00,40.1,26.5,30.38,South,176,0.0,2.0,58,0.00,,,0.00,Wunderground v.1.15,2013-01-19 01:29:00,
2013-01-18 19:34:00,40.0,26.4,30.38,SSE,165,0.0,1.0,58,0.00,,,0.00,Wunderground v.1.15,2013-01-19 01:34:00,
2013-01-18 19:39:00,39.8,26.6,30.38,SSE,161,0.0,1.0,59,0.00,,,0.00,Wunderground v.1.15,2013-01-19 01:39:00,
2013-01-18 19:44:00,39.6,26.4,30.38,SSE,155,0.0,2.0,59,0.00,,,0.00,Wunderground v.1.15,2013-01-19 01:44:00,
2013-01-18 19:49:00,39.5,26.3,30.38,SW,218,0.0,2.0,59,0.00,,,0.00,Wunderground v.1.15,2013-01-19 01:49:00,
2013-01-18 19:54:00,39.5,26.3,30.38,SSW,197,1.0,2.0,59,0.00,,,0.00,Wunderground v.1.15,2013-01-19 01:54:00,
2013-01-18 19:59:00,39.5,26.3,30.37,SSE,158,1.0,3.0,59,0.00,,,0.00,Wunderground v.1.15,2013-01-19 01:59:00,
2013-01-18 20:04:00,39.3,26.2,30.37,SSE,165,0.0,2.0,59,0.00,,,0.00,Wunderground v.1.15,2013-01-19 02:04:00,
2013-01-18 20:09:00,39.1,26.0,30.37,SSE,166,1.0,3.0,59,0.00,,,0.00,Wunderground v.1.15,2013-01-19 02:09:00,
2013-01-18 20:14:00,38.9,26.2,30.37,SSW,204,0.0,2.0,60,0.00,,,0.00,Wunderground v.1.15,2013-01-19 02:14:00,
2013-01-18 20:19:00,38.8,26.1,30.37,SSW,196,1.0,2.0,60,0.00,,,0.00,Wunderground v.1.15,2013-01-19 02:19:00,
2013-01-18 20:24:00,38.7,26.0,30.37,SW,217,1.0,2.0,60,0.00,,,0.00,Wunderground v.1.15,2013-01-19 02:24:00,
2013-01-18 20:29:00,38.7,26.0,30.36,SW,221,1.0,2.0,60,0.00,,,0.00,Wunderground v.1.15,2013-01-19 02:29:00,
2013-01-18 20:34:00,38.6,25.9,30.36,SW,218,1.0,2.0,60,0.00,,,0.00,Wunderground v.1.15,2013-01-19 02:34:00,
2013-01-18 20:39:00,38.6,25.9,30.36,SW,219,1.0,2.0,60,0.00,,,0.00,Wunderground v.1.15,2013-01-19 02:39:00,
2013-01-18 20:44:00,38.6,25.9,30.36,SW,229,2.0,3.0,60,0.00,,,0.00,Wunderground v.1.15,2013-01-19 02:44:00,
2013-01-18 20:49:00,38.6,26.3,30.36,SSW,198,2.0,4.0,61,0.00,,,0.00,Wunderground v.1.15,2013-01-19 02:49:00,
2013-01-18 20:54:00,38.7,26.4,30.35,South,171,2.0,3.0,61,0.00,,,0.00,Wunderground v.1.15,2013-01-19 02:54:00,
2013-01-18 20:59:00,38.7,26.4,30.36,SSW,201,2.0,4.0,61,0.00,,,0.00,Wunderground v.1.15,2013-01-19 02:59:00,
2013-01-18 21:04:00,39.0,26.3,30.35,SSW,212,2.0,8.0,60,0.00,,,0.00,Wunderground v.1.15,2013-01-19 03:04:00,
2013-01-18 21:09:00,39.1,26.4,30.35,SSW,196,2.0,8.0,60,0.00,,,0.00,Wunderground v.1.15,2013-01-19 03:09:00,
2013-01-18 21:14:00,39.4,26.7,30.35,SW,233,3.0,6.0,60,0.00,,,0.00,Wunderground v.1.15,2013-01-19 03:14:00,
2013-01-18 21:19:00,39.6,26.4,30.35,SSE,167,1.0,6.0,59,0.00,,,0.00,Wunderground v.1.15,2013-01-19 03:19:00,
2013-01-18 21:24:00,39.8,26.6,30.35,WSW,248,2.0,6.0,59,0.00,,,0.00,Wunderground v.1.15,2013-01-19 03:24:00,
2013-01-18 21:29:00,40.0,26.8,30.35,SW,232,2.0,10.0,59,0.00,,,0.00,Wunderground v.1.15,2013-01-19 03:29:00,
2013-01-18 21:34:00,40.2,26.6,30.35,South,180,4.0,6.0,58,0.00,,,0.00,Wunderground v.1.15,2013-01-19 03:34:00,
2013-01-18 21:39:00,40.4,26.8,30.35,WSW,242,4.0,6.0,58,0.00,,,0.00,Wunderground v.1.15,2013-01-19 03:39:00,
2013-01-18 21:44:00,40.5,26.9,30.35,WSW,239,1.0,6.0,58,0.00,,,0.00,Wunderground v.1.15,2013-01-19 03:44:00,
2013-01-18 21:49:00,40.6,27.0,30.35,South,183,4.0,9.0,58,0.00,,,0.00,Wunderground v.1.15,2013-01-19 03:49:00,
2013-01-18 21:54:00,40.7,26.6,30.35,SW,221,2.0,7.0,57,0.00,,,0.00,Wunderground v.1.15,2013-01-19 03:54:00,
2013-01-18 21:59:00,40.6,27.0,30.34,SW,230,4.0,7.0,58,0.00,,,0.00,Wunderground v.1.15,2013-01-19 03:59:00,
2013-01-18 22:04:00,40.8,26.7,30.34,SW,214,2.0,7.0,57,0.00,,,0.00,Wunderground v.1.15,2013-01-19 04:04:00,
2013-01-18 22:09:00,40.8,26.7,30.34,SSW,203,1.0,7.0,57,0.00,,,0.00,Wunderground v.1.15,2013-01-19 04:09:00,
2013-01-18 22:14:00,40.8,26.7,30.34,SW,218,3.0,4.0,57,0.00,,,0.00,Wunderground v.1.15,2013-01-19 04:14:00,
2013-01-18 22:19:00,40.9,26.8,30.34,WSW,245,2.0,7.0,57,0.00,,,0.00,Wunderground v.1.15,2013-01-19 04:19:00,
2013-01-18 22:24:00,41.0,26.9,30.33,SW,233,3.0,7.0,57,0.00,,,0.00,Wunderground v.1.15,2013-01-19 04:24:00,
2013-01-18 22:29:00,41.2,27.1,30.33,SSE,159,2.0,7.0,57,0.00,,,0.00,Wunderground v.1.15,2013-01-19 04:29:00,
2013-01-18 22:34:00,41.3,27.2,30.33,SSW,208,2.0,11.0,57,0.00,,,0.00,Wunderground v.1.15,2013-01-19 04:34:00,
2013-01-18 22:39:00,41.5,27.4,30.33,SSW,211,7.0,11.0,57,0.00,,,0.00,Wunderground v.1.15,2013-01-19 04:39:00,
2013-01-18 22:44:00,41.7,27.1,30.32,SW,233,6.0,9.0,56,0.00,,,0.00,Wunderground v.1.15,2013-01-19 04:44:00,
2013-01-18 22:49:00,41.9,27.3,30.33,NNW,327,1.0,10.0,56,0.00,,,0.00,Wunderground v.1.15,2013-01-19 04:49:00,
2013-01-18 22:54:00,41.9,27.3,30.33,South,180,3.0,6.0,56,0.00,,,0.00,Wunderground v.1.15,2013-01-19 04:54:00,
2013-01-18 22:59:00,41.9,27.3,30.32,WSW,243,3.0,7.0,56,0.00,,,0.00,Wunderground v.1.15,2013-01-19 04:59:00,
2013-01-18 23:01:00,41.8,27.2,30.32,WSW,255,2.0,9.0,56,0.00,,,0.00,Wunderground v.1.15,2013-01-19 05:01:00,
2013-01-18 23:03:00,41.8,27.2,30.32,NW,311,1.0,9.0,56,0.00,,,0.00,Wunderground v.1.15,2013-01-19 05:03:00,
2013-01-18 23:04:00,41.8,27.2,30.32,West,273,2.0,9.0,56,0.00,,,0.00,Wunderground v.1.15,2013-01-19 05:04:00,
2013-01-18 23:09:00,41.7,27.6,30.33,West,266,2.0,9.0,57,0.00,,,0.00,Wunderground v.1.15,2013-01-19 05:09:00,
2013-01-18 23:14:00,41.6,27.5,30.32,SW,235,3.0,6.0,57,0.00,,,0.00,Wunderground v.1.15,2013-01-19 05:14:00,
2013-01-18 23:19:00,41.4,27.3,30.32,WSW,250,2.0,6.0,57,0.00,,,0.00,Wunderground v.1.15,2013-01-19 05:19:00,
2013-01-18 23:24:00,41.2,27.5,30.33,South,183,2.0,5.0,58,0.00,,,0.00,Wunderground v.1.15,2013-01-19 05:24:00,
2013-01-18 23:29:00,41.0,27.8,30.33,West,274,5.0,5.0,59,0.00,,,0.00,Wunderground v.1.15,2013-01-19 05:29:00,
2013-01-18 23:34:00,40.8,27.6,30.33,WSW,248,1.0,7.0,59,0.00,,,0.00,Wunderground v.1.15,2013-01-19 05:34:00,
2013-01-18 23:39:00,40.5,27.7,30.33,WSW,242,2.0,7.0,60,0.00,,,0.00,Wunderground v.1.15,2013-01-19 05:39:00,
2013-01-18 23:44:00,40.2,27.4,30.33,SW,221,1.0,6.0,60,0.00,,,0.00,Wunderground v.1.15,2013-01-19 05:44:00,
2013-01-18 23:49:00,40.0,27.6,30.32,SW,232,3.0,6.0,61,0.00,,,0.00,Wunderground v.1.15,2013-01-19 05:49:00,
2013-01-18 23:54:00,39.8,27.4,30.32,West,261,4.0,4.0,61,0.00,,,0.00,Wunderground v.1.15,2013-01-19 05:54:00,
2013-01-18 23:59:00,39.6,27.2,30.32,SW,233,3.0,4.0,61,0.00,,,0.00,Wunderground v.1.15,2013-01-19 05:59:00,